Regional Weather Roundup
Issued by NWS Lake Charles, LA

Home | Current Version | Previous Version | Text Only | Print | Product List | Glossary On
Versions: 1 2 3 4 5 6 7 8 9 10 11 12 13 14 15 16 17 18 19 20 21 22 23 24 25 26 27
000
ASUS44 KLCH 010410
RWRLCH
REGIONAL WEATHER ROUNDUP
NATIONAL WEATHER SERVICE LAKE CHARLES LA
1100 PM CDT SAT APR 30 2016

Note: "fair" indicates few or no clouds below 12,000 feet with no
significant weather and/or obstructions to visibility.


ACROSS SOUTHEAST TEXAS

CITY           SKY/WX    TMP DP  RH WIND       PRES   REMARKS
BEAUMONT       CLOUDY    78  76  93 SE7       29.80R
BEAUMONT CITY  CLOUDY    78  74  87 SE5       29.81R
ORANGE         CLOUDY    78  73  86 SE3       29.82R
JASPER         PTCLDY    74  71  89 CALM      29.84R
$$

ACROSS CENTRAL LOUISIANA

CITY           SKY/WX    TMP DP  RH WIND       PRES   REMARKS
LEESVILLE      CLOUDY    76  74  92 SE9       29.82R
FULLERTON      LGT RAIN  76  73  91 VRB3      29.81R
ALEXANDRIA INT CLOUDY    76  72  87 SE9       29.82R
ESLER FIELD    CLOUDY    74  71  91 S5        29.84R
DERIDDER       CLOUDY    76  74  95 SE5       29.84R
OAKDALE        CLOUDY    75  73  92 S3        29.83S
OPELOUSAS      CLOUDY    74  69  86 SE14      29.84S
$$

ACROSS SOUTHWEST AND SOUTH CENTRAL LOUISIANA

CITY           SKY/WX    TMP DP  RH WIND       PRES   REMARKS
SULPHUR        CLOUDY    79  76  91 SE12      29.82R
LAKE CHARLES   CLOUDY    77  75  93 S9        29.81S
CHENNAULT INT  LGT RAIN  76  75  95 SE10      29.81S
CAMERON PHI    CLOUDY    77  75  94 SE13G20   29.84S FOG
DEQUINCY       CLOUDY    76  76 100 E5        29.82R
JENNINGS       CLOUDY    75  73  94 SE7       29.83R
LAFAYETTE      MOCLDY    75  70  84 VRB6      29.85R
NEW IBERIA     MOCLDY    74  70  87 SE13      29.85S
ABBEVILLE      CLOUDY    74  73  95 SE9G18    29.85R
PATTERSON      NOT AVBL
SALT POINT       N/A     74  72  93 SE13G20   29.83F
$$

SELECTED SITES ACROSS THE REGION

CITY           SKY/WX    TMP DP  RH WIND       PRES   REMARKS
HOUSTON BUSH   PTCLDY    74  74 100 SE7       29.79R
HOUSTON HOBBY  MOCLDY    78  75  90 SE5       29.78R
GALVESTON      CLOUDY    77  77 100 E9        29.79R
COLLEGE STAT   CLEAR     74  69  85 N9        29.82R
CONROE         CLEAR     71  70  96 CALM      29.80R
HUNTSVILLE     CLEAR     72  67  84 N5        29.81R
LUFKIN         CLEAR     74  69  85 N7        29.80R
SHREVEPORT     PTCLDY    75  70  84 NW9       29.81R
MONROE         MOCLDY    72  68  87 VRB3      29.84R
NATCHEZ MS     CLOUDY    72  66  83 SE7       29.87R
BATON ROUGE    CLEAR     70  66  87 SE5       29.86S
N.O. INTL ARPT PTCLDY    71  67  87 SE6       29.86F
SLIDELL        CLEAR     67  67 100 CALM      29.87S
$$

MARINE REPORTS

STATION/POSITION TIME  SKY/WX   TEMP    WIND        PRES    VSBY
                                AIR SEA DIR/SP/G
                 (UTC)          (F)     (DEG/KT/KT) (MB)    (MI)
BUOY 30 S HIGH I 0350            77 77  110/ 10/ 12 1008.1R
WVE H/P(F/S)=  4/ 8

SEA RIM ST PARK  0400            77     140/ 12/ 13 1009.6R
PORT ARTHUR      0300               76                N/A
SABINE PASS N    0300               79                N/A
TEXAS POINT      NOT AVBL
CALCASIEU PASS   0300               79                N/A
LK CHARLES BEACH 0300               76                N/A
MARSH ISLAND     0300            77     140/ 23/ 28   N/A
FRESH WATER LOCK 0300               78                N/A
AMERADA PASS     0300               73                N/A
$$




USA.gov is the U.S. government's official web portal to all federal, state and local government web resources and services.